TimeMDT,TemperatureF,Dew PointF,Humidity,Sea Level PressureIn,VisibilityMPH,Wind Direction,Wind SpeedMPH,Gust SpeedMPH,PrecipitationIn,Events,Conditions,WindDirDegrees,DateUTC
12:53 AM,60.1,48.0,64,29.97,10.0,NW,3.5,-,N/A,,Clear,320,2013-07-15 06:53:00
1:53 AM,57.0,48.0,72,29.98,10.0,NE,3.5,-,N/A,,Clear,40,2013-07-15 07:53:00
2:53 AM,55.9,48.0,75,29.98,10.0,North,4.6,-,N/A,,Clear,10,2013-07-15 08:53:00
3:53 AM,54.0,48.0,80,29.98,10.0,Calm,Calm,-,N/A,,Clear,0,2013-07-15 09:53:00
4:53 AM,52.0,46.0,80,29.99,10.0,North,4.6,-,N/A,,Clear,10,2013-07-15 10:53:00
5:53 AM,50.0,45.0,83,30.00,10.0,ENE,4.6,-,N/A,,Clear,60,2013-07-15 11:53:00
6:53 AM,51.1,45.0,80,29.99,10.0,NE,5.8,-,N/A,,Clear,50,2013-07-15 12:53:00
7:53 AM,55.0,46.0,72,30.00,10.0,NE,4.6,-,N/A,,Clear,40,2013-07-15 13:53:00
8:53 AM,61.0,48.0,62,30.00,10.0,Calm,Calm,-,N/A,,Clear,0,2013-07-15 14:53:00
9:53 AM,69.1,48.0,47,29.97,10.0,Calm,Calm,-,N/A,,Clear,0,2013-07-15 15:53:00
10:53 AM,75.9,48.9,38,29.95,10.0,Calm,Calm,-,N/A,,Clear,0,2013-07-15 16:53:00
11:53 AM,80.1,50.0,35,29.95,10.0,West,5.8,-,N/A,,Clear,280,2013-07-15 17:53:00
12:53 PM,80.1,52.0,38,29.96,10.0,WSW,4.6,-,N/A,,Clear,240,2013-07-15 18:53:00
1:53 PM,87.1,46.0,24,29.93,10.0,SW,11.5,17.3,N/A,,Clear,230,2013-07-15 19:53:00
2:53 PM,88.0,37.9,17,29.91,10.0,South,11.5,21.9,N/A,,Clear,190,2013-07-15 20:53:00
3:53 PM,89.1,37.9,16,29.88,10.0,South,10.4,-,N/A,,Clear,170,2013-07-15 21:53:00
4:53 PM,90.0,35.1,14,29.86,10.0,South,8.1,-,N/A,,Clear,180,2013-07-15 22:53:00
5:53 PM,84.9,50.0,30,29.87,10.0,SW,6.9,-,N/A,,Clear,230,2013-07-15 23:53:00
6:53 PM,78.1,48.0,35,29.88,10.0,SSW,8.1,-,N/A,,Partly Cloudy,200,2013-07-16 00:53:00
7:53 PM,79.0,46.9,32,29.85,10.0,SSE,8.1,17.3,N/A,,Clear,160,2013-07-16 01:53:00
8:53 PM,75.9,51.1,42,29.86,10.0,NNE,3.5,-,N/A,,Clear,20,2013-07-16 02:53:00
9:53 PM,71.1,53.1,53,29.87,10.0,East,5.8,-,N/A,,Clear,80,2013-07-16 03:53:00
10:53 PM,66.9,51.1,57,29.87,10.0,ENE,5.8,-,N/A,,Clear,70,2013-07-16 04:53:00
11:53 PM,63.0,53.1,70,29.87,10.0,North,3.5,-,N/A,,Clear,10,2013-07-16 05:53:00